Flag for Norway Weather past 2 weeks in Sandefjord, Norway

Now
30 °F

Clear.


Feels Like: 30 °F
Forecast: 38 / 41 °F
Wind: 1 mph from North

Location: Torp

Current Time: Dec 18, 2014 at 12:43:39 PM

Latest Report: Dec 18, 2014 at 11:50 AM


Visibility: 6 mi

Pressure: 29.30 "Hg

Humidity: 100%

Dew point: 30 °F

Location of SandefjordLocation

Historic Weather in Sandefjord — Graph

°F

Sandefjord temperature yesterday

Maximum temperature yesterday: 30 °F (at 11:50 PM)
Minimum temperature yesterday: 23 °F (at 8:20 AM)
Average temperature yesterday: 27 °F

Past Weeks' High & Low Weather Summary

 TemperatureHumidityPressure
High46 °F (Dec 7, 7:50 AM)100% (Dec 4, 2:20 AM)30.18 "Hg (Dec 4, 2:20 AM)
Low23 °F (Dec 17, 8:20 AM)60% (Dec 16, 12:50 AM)28.97 "Hg (Dec 12, 6:50 PM)
Average35 °F88%29.53 "Hg
* Reported Dec 3 11:20 AM — Dec 18 11:20 AM, Sandefjord, Weather by CustomWeather, © 2014

Note: Actual official high and low records may vary slightly from our data, if they occured in-between our weather recording intervals... More about our weather records

Advertising

Sandefjord weather history for previous 24 hours

 ConditionsComfort  
Time TempWeatherWind HumidityBarometerVisibility
11:20 AM
Dec 18
30 °FPassing clouds.1 mph100%29.30 "HgN/A
10:50 AM30 °FPartly sunny.1 mph100%29.30 "HgN/A
10:20 AM32 °FPartly sunny.3 mph100%29.30 "Hg5 mi
9:50 AM32 °FPassing clouds.5 mph93%29.30 "HgN/A
9:20 AM30 °FClear.2 mph100%29.33 "Hg6 mi
8:50 AM30 °FPassing clouds.3 mph100%29.33 "Hg5 mi
8:20 AM30 °FPassing clouds.3 mph100%29.33 "Hg4 mi
7:50 AM30 °FIce fog.3 mph100%29.33 "Hg2 mi
7:20 AM30 °FIce fog.1 mph100%29.33 "Hg1 mi
6:50 AM30 °FIce fog.1 mph100%29.33 "Hg1 mi
6:20 AM30 °FIce fog.3 mph100%29.33 "Hg1 mi
5:50 AM30 °FIce fog.3 mph100%29.33 "Hg1 mi
5:20 AM30 °FIce fog.5 mph100%29.33 "Hg0 mi
4:20 AM28 °FIce fog.2 mph100%29.33 "Hg1 mi
3:50 AM30 °FIce fog.3 mph93%29.36 "Hg1 mi
3:20 AM30 °FIce fog.3 mph93%29.36 "Hg1 mi
2:50 AM30 °FLow clouds.3 mph93%29.33 "Hg5 mi
2:20 AM30 °FLow clouds.7 mph93%29.36 "Hg4 mi
1:50 AM30 °FIce fog.8 mph100%29.36 "Hg1 mi
1:20 AM30 °FLight snow. Mostly cloudy.9 mph100%29.36 "Hg2 mi
12:50 AM30 °FLight freezing rain. Ice fog.8 mph100%29.36 "Hg2 mi
12:20 AM30 °FLight freezing rain. Ice fog.8 mph100%29.36 "Hg1 mi
11:50 PM
Dec 17
30 °FLight freezing rain. Ice fog.8 mph100%29.36 "Hg2 mi
11:20 PM28 °FLight snow. Ice fog.6 mph100%29.39 "Hg2 mi
10:50 PM28 °FLight snow. Ice fog.5 mph100%29.39 "Hg2 mi
10:20 PM28 °FLight snow. Ice fog.5 mph100%29.42 "Hg2 mi
9:50 PM28 °FLight snow. Ice fog.2 mph100%29.42 "Hg2 mi
9:20 PM28 °FMostly cloudy.3 mph100%29.42 "Hg4 mi
8:50 PM28 °FMostly cloudy.5 mph100%29.42 "Hg4 mi
8:20 PM28 °FLight snow. Ice fog.3 mph93%29.45 "Hg2 mi
7:50 PM27 °FLight snow. Ice fog.3 mph93%29.45 "Hg2 mi
7:20 PM27 °FPassing clouds.3 mph93%29.45 "HgN/A
6:50 PM27 °FPassing clouds.3 mph93%29.45 "HgN/A
6:20 PM27 °FClear.2 mph93%29.45 "Hg10 mi
5:50 PM27 °FPassing clouds.3 mph93%29.45 "HgN/A
5:20 PM27 °FClear.2 mph86%29.47 "Hg10 mi
4:50 PM27 °FClear.3 mph93%29.47 "Hg10 mi
4:20 PM27 °FClear.3 mph93%29.47 "Hg10 mi
3:50 PM27 °FClear.3 mph93%29.45 "Hg10 mi
3:20 PM27 °FClear.1 mph93%29.47 "Hg10 mi
2:50 PM27 °FSunny.1 mph93%29.47 "Hg10 mi
2:20 PM27 °FSunny.2 mph93%29.47 "Hg10 mi
1:50 PM27 °FSunny.3 mph93%29.47 "Hg10 mi
1:20 PM28 °FSunny.3 mph86%29.47 "Hg10 mi
12:50 PM28 °FSunny.3 mph86%29.47 "Hg10 mi
12:20 PM28 °FSunny.3 mph86%29.47 "Hg10 mi
Weather by CustomWeather, © 2014

See weather overviewHow to use our weather pages